sat.trackr.live / text

‹ back to catalog

HULIANWANG DIGUI-146

NORAD 67522 · 2026-013A

PAYLOAD ACTIVE UNKNOWN

§ Identity

Operator
Country
PRC
Launch date
2026-01-19
Launch site
WSC
Launch vehicle
Mass (kg)
RCS (m²)

External: N2YO · Heavens-Above · Gunter

§ Orbital elements

Epoch: 2026-09-20T13:28:45.330528Z

Period
108.33 min
Inclination
50.0103°
Eccentricity
0.0000783
Mean motion
13.29329340 rev/d
Perigee alt
1,148.7 km
Apogee alt
1,149.9 km
Semi-major
7,527.4 km
B*
4.7359e-5
RAAN
13.8605°
Arg perigee
103.1997°
Mean anomaly
256.8963°
Rev number
3,273

§ Raw data

HULIANWANG DIGUI-1461 67522U 26013A   26263.56163577 -.00000102  00000+0  47359-4 0  99982 67522  50.0103  13.8605 0000783 103.1997 256.8963 13.29329340 32734

JSON: /api/v1/satellites/67522 · /tle

For live sub-satellite position, see the globe view (requires WebGL).

§ Visibility from observer

Set your observer location to see the next 7 days of passes ≥ 10°. The values pass through the URL so the page stays shareable.

No JS? Fill the form by hand. The geolocation button needs JavaScript.